Bartlesville, OK

8:14 PM CDT on July 27, 2017 (GMT -0500)
Bartlesville Municipal

Weather History for KBVO - July, 2013

Change the Weather History Date:

Wednesday, July 3, 2013

  Actual Average Record
Temperature  
Mean Temperature 68 °F -  
Max Temperature 84 °F 92 °F 102 °F (1954)
Min Temperature 52 °F 69 °F 52 °F (2013)
Cooling Degree Days 3    
Growing Degree Days 18 (Base 50)    
Moisture  
Dew Point 54 °F    
Average Humidity 66    
Maximum Humidity 100    
Minimum Humidity 31    
Precipitation  
Precipitation 0.00 in - - ()
Sea Level Pressure  
Sea Level Pressure 30.04 in    
Wind  
Wind Speed 1 mph (SSE)    
Max Wind Speed 6 mph    
Max Gust Speed -    
Visibility 10 miles    
Events      
Averages and records for this station are not official NWS values.
T = Trace of Precipitation, MM = Missing Value Source: NWS Daily Summary

Daily Weather History Graph

Daily Weather History Graph

Search for Another Location

Airport or City:

Trip Planner

Search our weather history database for the weather conditions in past years. The results will help you decide how hot, cold, wet, or windy it might be!

Date:

Astronomy

Jul. 03, 2013 Rise Set
Actual Time 6:09 AM CDT 8:46 PM CDT
Civil Twilight 5:39 AM CDT 9:17 PM CDT
Nautical Twilight 5:01 AM CDT 9:54 PM CDT
Astronomical Twilight 4:19 AM CDT 10:37 PM CDT
Moon 2:45 AM CDT (7/3) 5:00 PM CDT (7/3)
Length of Visible Light 15h 37m
Length of Day
14h 36m
Waning Crescent, 18% of the Moon is Illuminated
Jul 3
Waning Crescent
Jul 8
New
Jul 15
First Quarter
Jul 22
Full
Jul 29
Last Quarter

Hourly Weather History & Observations

Time (CDT) Temp. Heat Index Dew Point Humidity Pressure Visibility Wind Dir Wind Speed Gust Speed Precip Events Conditions
12:53 AM 55.9 °F - 54.0 °F 93% 30.07 in 10.0 mi Calm Calm - N/A   Clear
1:53 AM 55.0 °F - 54.0 °F 96% 30.07 in 10.0 mi Calm Calm - N/A   Clear
2:53 AM 55.0 °F - 53.1 °F 93% 30.07 in 10.0 mi Calm Calm - N/A   Clear
3:53 AM 54.0 °F - 53.1 °F 97% 30.07 in 10.0 mi Calm Calm - N/A   Clear
4:53 AM 53.1 °F - 52.0 °F 96% 30.06 in 10.0 mi Calm Calm - N/A   Clear
5:53 AM 52.0 °F - 52.0 °F 100% 30.07 in 8.0 mi Calm Calm - N/A   Clear
6:53 AM 54.0 °F - 53.1 °F 97% 30.07 in 9.0 mi Calm Calm - N/A   Clear
7:53 AM 60.1 °F - 57.0 °F 90% 30.09 in 10.0 mi Calm Calm - N/A   Clear
8:53 AM 66.9 °F - 57.9 °F 73% 30.10 in 10.0 mi Calm Calm - N/A   Clear
9:53 AM 75.0 °F - 57.9 °F 55% 30.10 in 10.0 mi Variable 4.6 mph - N/A   Clear
10:53 AM 79.0 °F - 57.0 °F 47% 30.09 in 10.0 mi South 5.8 mph - N/A   Clear
11:53 AM 82.0 °F 81.6 °F 55.9 °F 41% 30.08 in 10.0 mi Variable 4.6 mph - N/A   Clear
12:53 PM 82.0 °F - 48.9 °F 31% 30.07 in 10.0 mi Calm Calm - N/A   Clear
1:53 PM 84.0 °F - 52.0 °F 33% 30.05 in 10.0 mi Variable 4.6 mph - N/A   Clear
2:53 PM 82.0 °F 81.3 °F 54.0 °F 38% 30.04 in 10.0 mi South 3.5 mph - N/A   Clear
3:53 PM 84.9 °F - 51.1 °F 31% 30.02 in 10.0 mi Calm Calm - N/A   Clear
4:53 PM 84.9 °F 83.3 °F 54.0 °F 34% 30.00 in 10.0 mi South 5.8 mph - N/A   Clear
5:53 PM 82.9 °F - 52.0 °F 34% 29.99 in 10.0 mi SE 3.5 mph - N/A   Clear
6:53 PM 82.9 °F - 52.0 °F 34% 29.98 in 10.0 mi SSE 5.8 mph - N/A   Clear
7:53 PM 79.0 °F - 54.0 °F 42% 29.98 in 10.0 mi SE 3.5 mph - N/A   Clear
8:53 PM 69.1 °F - 57.9 °F 68% 29.98 in 10.0 mi Calm Calm - N/A   Clear
9:53 PM 64.9 °F - 59.0 °F 81% 29.99 in 10.0 mi Calm Calm - N/A   Clear
10:53 PM 62.1 °F - 57.9 °F 86% 30.01 in 10.0 mi Calm Calm - N/A   Clear
11:53 PM 60.1 °F - 57.0 °F 90% 30.01 in 8.0 mi Calm Calm - N/A   Clear